TimeEDT,TemperatureF,Dew PointF,Humidity,Sea Level PressureIn,VisibilityMPH,Wind Direction,Wind SpeedMPH,Gust SpeedMPH,PrecipitationIn,Events,Conditions,WindDirDegrees,DateUTC
12:20 AM,71.6,69.8,94,29.95,10.0,North,8.1,-,N/A,,Overcast,350,2013-08-29 04:20:00
12:53 AM,71.1,69.1,93,29.93,10.0,North,8.1,-,N/A,,Overcast,350,2013-08-29 04:53:00
1:41 AM,71.6,69.8,94,29.96,10.0,North,5.8,-,N/A,,Overcast,10,2013-08-29 05:41:00
1:53 AM,71.1,69.1,93,29.93,8.0,North,3.5,-,N/A,,Mostly Cloudy,350,2013-08-29 05:53:00
2:06 AM,71.6,69.8,94,29.96,7.0,Calm,Calm,-,N/A,,Overcast,0,2013-08-29 06:06:00
2:21 AM,71.6,69.8,94,29.95,6.0,Calm,Calm,-,N/A,,Overcast,0,2013-08-29 06:21:00
2:53 AM,71.1,69.1,93,29.93,6.0,Calm,Calm,-,N/A,,Overcast,0,2013-08-29 06:53:00
3:53 AM,71.1,69.1,93,29.94,7.0,NNE,3.5,-,N/A,,Overcast,20,2013-08-29 07:53:00
4:35 AM,69.8,69.8,100,29.97,2.0,NNE,3.5,-,N/A,,Overcast,30,2013-08-29 08:35:00
4:44 AM,69.8,69.8,100,29.97,1.5,Calm,Calm,-,N/A,,Overcast,0,2013-08-29 08:44:00
4:53 AM,70.0,69.1,97,29.95,1.0,NNE,3.5,-,N/A,,Mist,20,2013-08-29 08:53:00
5:04 AM,69.8,69.8,100,29.98,0.8,NNE,3.5,-,N/A,,Mist,20,2013-08-29 09:04:00
5:26 AM,69.8,69.8,100,29.98,1.5,North,5.8,-,N/A,,Overcast,10,2013-08-29 09:26:00
5:40 AM,69.8,69.8,100,29.99,3.0,North,3.5,-,N/A,,Overcast,10,2013-08-29 09:40:00
5:53 AM,70.0,68.0,93,29.96,6.0,NNE,3.5,-,N/A,,Overcast,30,2013-08-29 09:53:00
6:04 AM,69.8,69.8,100,29.99,5.0,NNE,4.6,-,N/A,,Overcast,30,2013-08-29 10:04:00
6:35 AM,69.8,68.0,94,30.00,6.0,NE,4.6,-,N/A,,Overcast,40,2013-08-29 10:35:00
6:53 AM,70.0,69.1,97,29.98,4.0,Calm,Calm,-,N/A,,Overcast,0,2013-08-29 10:53:00
7:53 AM,70.0,68.0,93,30.01,4.0,NNE,5.8,-,N/A,,Overcast,20,2013-08-29 11:53:00
8:53 AM,71.1,69.1,93,30.02,5.0,Calm,Calm,-,N/A,,Overcast,0,2013-08-29 12:53:00
9:17 AM,73.4,69.8,88,30.04,7.0,NW,3.5,-,N/A,,Mostly Cloudy,320,2013-08-29 13:17:00
9:33 AM,75.2,69.8,83,30.04,8.0,North,4.6,-,N/A,,Mostly Cloudy,350,2013-08-29 13:33:00
9:53 AM,75.0,69.1,82,30.02,9.0,Variable,4.6,-,N/A,,Mostly Cloudy,0,2013-08-29 13:53:00
10:04 AM,75.2,69.8,83,30.06,10.0,Variable,4.6,-,N/A,,Scattered Clouds,0,2013-08-29 14:04:00
10:40 AM,78.8,69.8,74,30.06,9.0,Calm,Calm,-,N/A,,Mostly Cloudy,0,2013-08-29 14:40:00
10:53 AM,77.0,69.1,76,30.03,10.0,Variable,3.5,-,N/A,,Overcast,0,2013-08-29 14:53:00
11:04 AM,77.0,69.8,78,30.06,10.0,Variable,5.8,-,N/A,,Overcast,0,2013-08-29 15:04:00
11:53 AM,78.1,69.1,74,30.04,10.0,North,3.5,-,N/A,,Mostly Cloudy,10,2013-08-29 15:53:00
12:00 PM,77.0,68.0,74,30.07,10.0,Calm,Calm,-,N/A,,Mostly Cloudy,0,2013-08-29 16:00:00
12:53 PM,80.1,69.1,69,30.03,10.0,Variable,4.6,-,N/A,,Mostly Cloudy,0,2013-08-29 16:53:00
1:17 PM,80.6,69.8,70,30.06,10.0,NNE,5.8,-,N/A,,Mostly Cloudy,30,2013-08-29 17:17:00
1:26 PM,80.6,68.0,65,30.06,10.0,NE,5.8,-,N/A,,Scattered Clouds,40,2013-08-29 17:26:00
1:53 PM,82.0,69.1,65,30.03,10.0,North,4.6,-,N/A,,Scattered Clouds,360,2013-08-29 17:53:00
2:53 PM,82.9,68.0,60,30.01,10.0,NW,5.8,-,N/A,,Partly Cloudy,320,2013-08-29 18:53:00
3:53 PM,82.9,69.1,63,30.00,10.0,NE,4.6,-,N/A,,Clear,40,2013-08-29 19:53:00
4:53 PM,80.1,66.9,64,30.01,10.0,NNE,6.9,-,N/A,,Mostly Cloudy,20,2013-08-29 20:53:00
5:53 PM,82.9,68.0,60,30.00,10.0,North,6.9,-,N/A,,Partly Cloudy,350,2013-08-29 21:53:00
6:53 PM,80.1,69.1,69,30.01,10.0,North,3.5,-,N/A,,Clear,360,2013-08-29 22:53:00
7:53 PM,75.0,69.1,82,30.02,10.0,North,3.5,-,N/A,,Clear,360,2013-08-29 23:53:00
8:53 PM,75.0,68.0,79,30.02,10.0,NNE,3.5,-,N/A,,Clear,30,2013-08-30 00:53:00
9:53 PM,73.0,69.1,87,30.04,10.0,Calm,Calm,-,N/A,,Clear,0,2013-08-30 01:53:00
10:53 PM,72.0,69.1,91,30.04,9.0,Calm,Calm,-,N/A,,Clear,0,2013-08-30 02:53:00
11:53 PM,71.1,68.0,90,30.03,9.0,Calm,Calm,-,N/A,,Clear,0,2013-08-30 03:53:00